Stations météo

Publicité
Paris-Montsouris, France (7156): Température de l'air & dewpoint: 15.10.2019 06:00:00 - 21.10.2019 06:00:00 (CEST)Paris-Montsouris, France (7156): Température de l'air 5cm: 15.10.2019 06:00:00 - 21.10.2019 06:00:00 (CEST)Paris-Montsouris, France (7156): Température de l'air -20cm & Température de l'air -100cm: 15.10.2019 06:00:00 - 21.10.2019 06:00:00 (CEST)Paris-Montsouris, France (7156): Vitesse du vent & gusts: 15.10.2019 06:00:00 - 21.10.2019 06:00:00 (CEST)Paris-Montsouris, France (7156): Direction du vent: 15.10.2019 06:00:00 - 21.10.2019 06:00:00 (CEST)Paris-Montsouris, France (7156): reduced air pressure: 15.10.2019 06:00:00 - 21.10.2019 06:00:00 (CEST)Paris-Montsouris, France (7156): visibility: 15.10.2019 06:00:00 - 21.10.2019 06:00:00 (CEST)Paris-Montsouris, France (7156): Ensoleillement: 15.10.2019 06:00:00 - 21.10.2019 06:00:00 (CEST)Paris-Montsouris, France (7156): Quantités de précipitations: 15.10.2019 06:00:00 - 21.10.2019 06:00:00 (CEST)
Date & Time tt [°C] td [°C] tt 5cm [°C] tt -20cm [°C] tt -100cm [°C] ff [km/h] ff [knt] fx [km/h] fx [knt] dd ppp [hPa] vv [km] sd [min] rr [mm]
21.10.2019 06:00:00 10,6 10,0 10,2 14,0 15,5 9 5 28 15 WSW 1010,9 15 0 0,0
21.10.2019 05:00:00 10,7 10,1 10,5 14,0 15,5 10 5 19 11 W 1009,9 3,1 0 0,4
21.10.2019 04:00:00 11,0 10,4 10,7 14,0 15,5 7 4 16 9 W 1009,0 1,4 0 0,2
21.10.2019 03:00:00 11,0 10,4 10,7 14,1 15,5 9 5 17 9 N 1008,1 5 0 0,2
21.10.2019 02:00:00 11,1 10,5 10,8 14,1 15,5 10 5 18 10 N 1007,3 14 0 0,4
21.10.2019 01:00:00 11,3 10,7 10,9 14,1 15,5 8 4 21 11 NNW 1007,3 5 0 3,0
21.10.2019 00:00:00 11,3 10,7 10,9 14,2 15,5 7 4 17 9 NNE 1007,4 2,6 0 0,4
20.10.2019 23:00:00 11,3 10,5 10,7 14,2 15,5 10 5 32 17 NE 1007,5 4,0 0 0,4
20.10.2019 22:00:00 11,3 10,4 10,7 14,2 15,5 9 5 37 20 NE 1007,2 6 0 0,4
20.10.2019 21:00:00 11,3 10,2 10,8 14,3 15,5 17 9 41 22 NE 1006,3 16 0 0,0
20.10.2019 20:00:00 11,4 10,1 10,8 14,3 15,5 18 10 42 23 NE 1006,9 9 0 0,0
20.10.2019 19:00:00 11,8 10,2 11,1 14,3 15,6 13 7 35 19 NE 1006,8 16 0 0,0
20.10.2019 18:00:00 12,2 10,4 11,4 14,3 15,6 16 8 40 21 NNE 1006,3 7 0 0,2
20.10.2019 17:00:00 12,8 9,2 11,6 14,2 15,6 12 7 44 24 NE 1006,5 20 0 0,0
20.10.2019 16:00:00 12,7 9,1 11,7 14,1 15,6 23 12 40 22 NNE 1006,3 20 0 0,0
20.10.2019 15:00:00 12,7 10,1 12,2 14,1 15,6 18 10 37 20 NNE 1005,9 20 0 0,0
20.10.2019 14:00:00 11,9 10,3 12,3 14,0 15,5 16 8 41 22 NE 1005,9 20 0 0,0
20.10.2019 13:00:00 11,7 10,8 11,0 14,1 15,6 16 8 31 17 NNE 1006,1 19 0 1,2
20.10.2019 12:00:00 11,1 10,2 10,6 14,1 15,5 10 5 26 14 NNE 1006,9 4,5 0 1,2
20.10.2019 11:00:00 11,0 10,2 10,7 14,1 15,5 13 7 29 16 NNE 1006,0 20 0 0,2
20.10.2019 10:00:00 10,9 10,1 10,3 14,1 15,6 10 6 34 19 NE 1006,0 20 0 0,8
20.10.2019 09:00:00 10,8 10,0 10,3 14,2 15,6 13 7 27 14 NE 1006,3 15 0 2,0
20.10.2019 08:00:00 10,9 10,0 10,5 14,2 15,5 12 6 27 14 NNE 1006,0 16 0 0,2
20.10.2019 07:00:00 11,7 11,1 11,1 14,3 15,6 9 5 18 10 N 1006,3 7 0 0,6
20.10.2019 06:00:00 11,9 11,3 11,1 14,3 15,6 8 4 18 10 N 1005,8 10 0 0,8
20.10.2019 05:00:00 12,1 11,5 11,1 14,3 15,6 4 2 12 7 E 1006,0 6 0 0,0
20.10.2019 04:00:00 12,0 11,4 10,8 14,4 15,6 3 2 6 3 E 1006,1 8 0 0,0
20.10.2019 03:00:00 12,1 11,5 9,8 14,4 15,6 5 3 8 4 SE 1006,4 10 0 0,0
20.10.2019 02:00:00 11,7 10,9 10,3 14,5 15,6 2 1 8 4 E 1006,3 14 0 0,0
20.10.2019 01:00:00 12,3 11,2 10,9 14,5 15,6 4 2 11 6 SSE 1006,6 9 0 0,4
20.10.2019 00:00:00 12,7 11,6 11,6 14,5 15,6 5 3 14 7 S 1006,9 6 0 0,8
19.10.2019 23:00:00 12,8 11,5 11,5 14,6 15,6 7 4 14 8 S 1007,0 18 0 0,2
19.10.2019 22:00:00 12,7 11,1 11,3 14,6 15,6 4 2 10 5 S 1006,7 20 0 0,0
19.10.2019 21:00:00 12,9 11,1 10,9 14,7 15,6 4 2 10 6 S 1005,8 20 0 0,0
19.10.2019 20:00:00 13,0 10,9 10,7 14,7 15,6 5 3 9 5 S 1005,9 20 0 0,0
19.10.2019 19:00:00 13,2 10,0 10,9 14,7 15,6 4 2 12 7 SW 1005,7 20 0 0,0
19.10.2019 18:00:00 14,6 9,8 14,1 14,6 15,6 6 4 22 12 WSW 1005,3 20 18 0,0
19.10.2019 17:00:00 14,9 10,1 15,3 14,5 15,6 6 3 22 12 WSW 1005,4 20 7 0,0
19.10.2019 16:00:00 14,8 10,0 15,8 14,5 15,6 13 7 25 13 SW 1005,1 20 18 0,0
19.10.2019 15:00:00 14,3 10,5 13,6 14,4 15,6 13 7 26 14 SW 1005,4 20 21 0,0
19.10.2019 14:00:00 13,1 11,3 12,5 14,3 15,6 9 5 21 11 SSW 1005,7 20 0 0,0
19.10.2019 13:00:00 12,5 10,9 11,7 14,3 15,6 7 4 22 12 SW 1006,0 11 0 0,4
19.10.2019 12:00:00 12,6 10,7 11,6 14,3 15,6 9 5 26 14 WSW 1005,9 11 0 0,6
19.10.2019 11:00:00 12,8 10,7 12,5 14,3 15,6 8 5 26 14 SW 1005,5 20 0 0,0
19.10.2019 10:00:00 12,6 11,0 11,7 14,3 15,6 7 4 19 10 SW 1005,3 20 0 0,0
19.10.2019 09:00:00 12,3 11,0 11,2 14,3 15,6 7 4 23 12 SSW 1005,0 20 0 0,2
19.10.2019 08:00:00 12,2 10,4 11,5 14,3 15,6 11 6 35 19 SW 1005,0 16 0 0,0
19.10.2019 07:00:00 12,4 11,0 10,9 14,4 15,6 12 6 30 16 SSW 1004,9 20 0 0,0
19.10.2019 06:00:00 12,5 11,2 11,4 14,4 15,6 11 6 29 15 SSW 1005,0 20 0 0,0
19.10.2019 05:00:00 12,7 11,4 11,9 14,4 15,6 13 7 29 16 SSW 1005,3 20 0 0,2
19.10.2019 04:00:00 12,9 11,3 11,8 14,5 15,6 12 7 29 16 SSW 1005,8 17 0 0,4
19.10.2019 03:00:00 13,1 10,6 11,7 14,5 15,6 10 5 34 19 SSW 1006,1 20 0 0,0
19.10.2019 02:00:00 13,1 10,8 11,7 14,6 15,6 12 7 30 16 SSW 1006,8 20 0 0,2
19.10.2019 01:00:00 13,2 10,6 11,5 14,6 15,6 11 6 28 15 SSW 1007,0 20 0 0,0
19.10.2019 00:00:00 13,2 10,2 11,8 14,7 15,6 11 6 30 16 SSW 1007,5 20 0 0,0
18.10.2019 23:00:00 13,3 9,9 11,6 14,7 15,6 13 7 29 16 SSW 1007,9 20 0 0,0
18.10.2019 22:00:00 13,3 9,0 11,2 14,8 15,6 10 6 36 19 SSW 1008,3 20 0 0,0
18.10.2019 21:00:00 13,3 8,8 10,9 14,8 15,6 11 6 25 14 SSW 1008,8 20 0 0,0
18.10.2019 20:00:00 13,6 8,4 10,3 14,9 15,6 9 5 29 16 SSW 1009,1 20 0 0,0
18.10.2019 19:00:00 14,4 7,9 12,4 14,8 15,6 13 7 32 18 SW 1009,3 20 0 0,0
18.10.2019 18:00:00 15,3 7,1 14,4 14,8 15,6 11 6 37 20 SSW 1009,3 20 0 0,0
18.10.2019 17:00:00 15,6 7,4 15,0 14,8 15,7 13 7 44 24 SW 1009,7 20 28 0,0
18.10.2019 16:00:00 16,0 6,4 16,3 14,7 15,6 20 11 50 27 SW 1009,7 20 49 0,0
18.10.2019 15:00:00 16,7 6,8 19,3 14,6 15,6 20 11 49 27 SW 1009,8 20 60 0,0
18.10.2019 14:00:00 16,4 7,3 14,3 14,6 15,6 15 8 46 25 WSW 1009,8 20 56 0,0
18.10.2019 13:00:00 14,7 6,5 14,3 14,6 15,6 21 11 41 22 WSW 1010,0 20 57 0,0
18.10.2019 12:00:00 13,9 7,9 13,5 14,7 15,6 16 9 56 30 W 1009,8 20 51 0,0
18.10.2019 11:00:00 12,9 7,6 10,6 14,7 15,6 22 12 61 33 WSW 1009,0 20 38 0,0
18.10.2019 10:00:00 11,6 7,1 9,8 14,8 15,6 14 8 44 24 SW 1008,3 20 0 0,0
18.10.2019 09:00:00 11,5 7,2 8,9 14,9 15,6 16 9 47 25 SW 1007,1 20 0 0,0
18.10.2019 08:00:00 10,9 7,4 9,0 14,9 15,6 29 15 74 40 W 1007,4 17 0 2,6
18.10.2019 07:00:00 14,2 11,2 12,4 15,0 15,6 18 10 52 28 SW 1006,5 19 0 0,0
18.10.2019 06:00:00 13,4 11,3 11,8 15,0 15,6 16 9 40 22 SSW 1006,8 20 0 0,0
18.10.2019 05:00:00 13,8 11,7 12,9 15,0 15,6 14 8 37 20 SSW 1007,1 20 0 0,0
18.10.2019 04:00:00 13,8 11,5 12,3 15,1 15,6 13 7 40 21 SSW 1007,7 20 0 0,0
18.10.2019 03:00:00 13,9 11,2 12,9 15,1 15,6 16 9 40 22 SSW 1008,4 20 0 0,0
18.10.2019 02:00:00 14,3 12,2 13,2 15,2 15,7 12 6 37 20 SSW 1008,7 20 0 0,0
18.10.2019 01:00:00 14,5 12,5 13,2 15,2 15,6 12 6 31 17 SSW 1009,2 20 0 0,0
18.10.2019 00:00:00 14,9 12,9 13,8 15,2 15,6 13 7 32 18 SW 1009,5 20 0 0,0
17.10.2019 23:00:00 14,9 13,1 14,2 15,2 15,6 13 7 30 16 SSW 1009,4 20 0 0,0
17.10.2019 22:00:00 14,9 13,3 12,8 15,3 15,6 12 7 32 17 S 1009,8 20 0 0,0
17.10.2019 21:00:00 14,8 12,7 12,6 15,3 15,6 11 6 29 16 SSW 1010,0 20 0 0,0
17.10.2019 20:00:00 15,2 12,7 12,7 15,3 15,6 12 7 28 15 SSW 1010,1 20 0 0,0
17.10.2019 19:00:00 15,7 12,1 14,2 15,3 15,6 12 7 29 16 S 1010,1 20 15 0,0
17.10.2019 18:00:00 16,3 11,7 15,2 15,3 15,7 16 9 37 20 SW 1009,9 20 41 0,0
17.10.2019 17:00:00 16,5 12,3 16,3 15,2 15,7 10 5 29 15 SSW 1009,8 20 37 0,0
17.10.2019 16:00:00 16,2 12,9 16,2 15,1 15,6 11 6 23 12 SSW 1009,9 20 21 0,0
17.10.2019 15:00:00 15,1 12,8 14,5 15,0 15,7 8 4 23 13 SSW 1010,3 20 0 0,0
17.10.2019 14:00:00 15,3 12,6 14,5 14,9 15,6 11 6 27 14 SSW 1010,4 20 28 0,0
17.10.2019 13:00:00 13,7 12,1 13,1 14,9 15,7 11 6 24 13 S 1011,0 20 0 0,0
17.10.2019 12:00:00 12,7 11,6 12,4 14,8 15,6 9 5 27 15 SSW 1011,5 20 0 0,8
17.10.2019 11:00:00 13,2 11,9 12,8 14,8 15,6 11 6 25 14 SW 1011,7 7 0 0,2
17.10.2019 10:00:00 13,1 12,2 12,5 14,9 15,7 9 5 19 10 SSW 1011,3 20 0 0,0
17.10.2019 09:00:00 12,7 11,9 11,7 15,0 15,6 7 4 22 12 S 1011,1 20 0 0,0
17.10.2019 08:00:00 12,6 12,0 11,8 15,0 15,7 9 5 22 12 SSW 1011,1 19 0 0,2
17.10.2019 07:00:00 12,4 11,8 9,7 15,1 15,6 8 4 16 9 SSW 1010,8 20 0 0,0
17.10.2019 06:00:00 12,0 11,2 8,7 15,2 15,6 9 5 16 9 SSW 1010,9 20 0 0,0
17.10.2019 05:00:00 12,0 10,9 8,7 15,2 15,7 6 3 12 7 SSW 1011,0 20 0 0,0
17.10.2019 04:00:00 13,0 11,9 11,9 15,2 15,6 3 2 24 13 W 1011,0 20 0 0,0
17.10.2019 03:00:00 13,3 11,7 12,5 15,3 15,7 8 4 43 23 W 1010,8 17 0 0,2
17.10.2019 02:00:00 14,5 12,5 13,2 15,3 15,6 18 10 50 27 SW 1009,4 20 0 0,0
17.10.2019 01:00:00 14,5 12,9 13,5 15,3 15,7 21 12 48 26 SW 1008,6 20 0 0,2
17.10.2019 00:00:00 14,2 13,1 13,4 15,3 15,6 18 10 50 27 SW 1008,5 13 0 0,0
16.10.2019 23:00:00 13,9 12,8 13,2 15,4 15,7 18 10 39 21 SSW 1008,4 20 0 0,2
16.10.2019 22:00:00 13,8 12,7 13,2 15,4 15,6 16 8 42 23 SSW 1008,4 20 0 0,6
16.10.2019 21:00:00 13,8 12,7 13,2 15,4 15,6 16 9 44 24 SSW 1008,5 17 0 0,2
16.10.2019 20:00:00 14,0 12,9 13,3 15,4 15,7 14 8 48 26 SSW 1008,7 9 0 0,2
16.10.2019 19:00:00 14,2 12,9 13,6 15,4 15,7 16 9 51 27 SSW 1008,7 20 0 0,2
16.10.2019 18:00:00 14,3 13,3 13,8 15,3 15,6 20 11 45 25 SSW 1008,7 12 0 1,0
16.10.2019 17:00:00 14,5 13,4 14,0 15,2 15,6 18 10 44 24 SSW 1009,3 17 0 0,4
16.10.2019 16:00:00 15,1 13,6 14,6 15,2 15,7 17 9 44 24 SSW 1009,4 7 0 0,4
16.10.2019 15:00:00 16,7 12,8 17,5 15,0 15,7 22 12 64 35 SSW 1009,4 20 0 0,0
16.10.2019 14:00:00 16,7 12,4 16,3 14,9 15,6 20 11 49 27 SW 1009,4 20 17 0,0
16.10.2019 13:00:00 16,1 11,9 16,4 14,8 15,7 24 13 57 31 SW 1009,7 20 17 0,0
16.10.2019 12:00:00 15,3 11,9 13,9 14,8 15,6 25 14 58 31 SW 1009,4 20 14 0,0
16.10.2019 11:00:00 14,5 11,6 13,5 14,8 15,6 22 12 53 29 SSW 1009,4 20 0 0,2
16.10.2019 10:00:00 14,2 11,9 13,0 14,8 15,7 19 11 61 33 SSW 1009,6 20 0 0,0
16.10.2019 09:00:00 13,5 11,9 12,5 14,8 15,7 18 10 49 26 SW 1009,3 20 0 0,0
16.10.2019 08:00:00 13,0 12,1 12,3 14,8 15,6 16 9 42 23 SSW 1009,4 20 0 0,0
16.10.2019 07:00:00 12,7 11,9 11,9 14,9 15,7 16 9 37 20 SSW 1009,6 20 0 0,2
16.10.2019 06:00:00 12,4 11,6 11,5 15,0 15,6 14 7 39 21 SSW 1010,2 11 0 0,4
16.10.2019 05:00:00 12,1 11,2 10,9 15,1 15,7 11 6 31 17 S 1010,7 12 0 0,4
16.10.2019 04:00:00 11,8 10,5 10,4 15,1 15,6 11 6 28 15 SSW 1011,5 15 0 0,2
16.10.2019 03:00:00 11,5 9,4 10,4 15,2 15,6 12 6 24 13 SSW 1012,0 20 0 0,2
16.10.2019 02:00:00 11,3 8,7 8,7 15,3 15,6 9 5 21 11 SSW 1012,5 20 0 0,0
16.10.2019 01:00:00 11,1 8,7 8,2 15,4 15,6 11 6 22 12 SSW 1012,4 20 0 0,0
16.10.2019 00:00:00 11,8 8,8 9,0 15,5 15,6 10 5 29 16 SSW 1012,3 20 0 0,0
15.10.2019 23:00:00 12,7 9,3 10,9 15,6 15,6 13 7 35 19 SW 1011,8 20 0 0,0
15.10.2019 22:00:00 13,4 9,4 12,0 15,7 15,6 11 6 26 14 SW 1011,6 20 0 0,0
15.10.2019 21:00:00 13,8 9,2 12,2 15,7 15,6 12 6 31 17 SW 1011,0 20 0 0,0
15.10.2019 20:00:00 14,2 8,4 12,7 15,8 15,6 16 9 46 25 W 1010,5 20 0 0,0
15.10.2019 19:00:00 15,3 8,8 13,8 15,8 15,6 13 7 41 22 WSW 1009,4 20 7 0,0
15.10.2019 18:00:00 15,4 8,8 14,4 15,7 15,6 12 7 33 18 SW 1008,7 20 37 0,0
15.10.2019 17:00:00 15,9 8,6 16,1 15,7 15,6 13 7 35 19 WSW 1008,5 20 10 0,0
15.10.2019 16:00:00 15,6 9,3 16,2 15,6 15,6 11 6 38 21 WSW 1008,5 20 0 0,0
15.10.2019 15:00:00 15,9 10,0 15,5 15,5 15,6 12 7 39 21 W 1008,4 20 0 0,0
15.10.2019 14:00:00 16,1 10,0 17,1 15,5 15,6 14 8 35 19 W 1008,0 20 30 0,0
15.10.2019 13:00:00 15,4 10,6 16,4 15,5 15,6 14 8 31 17 WSW 1008,2 20 8 0,0
15.10.2019 12:00:00 14,9 11,1 14,9 15,5 15,6 12 6 30 16 WSW 1008,3 20 17 0,0
15.10.2019 11:00:00 13,6 10,6 14,2 15,4 15,6 11 6 25 14 WSW 1008,2 20 5 0,0
15.10.2019 10:00:00 13,4 11,3 12,9 15,5 15,6 10 6 28 15 W 1007,6 20 0 0,0
15.10.2019 09:00:00 13,7 12,6 12,6 15,5 15,6 8 4 20 11 WSW 1007,0 20 0 0,0
15.10.2019 08:00:00 13,7 12,8 12,9 15,6 15,6 6 3 22 12 SW 1006,2 20 0 0,0
15.10.2019 07:00:00 13,7 12,9 11,9 15,6 15,6 8 4 16 8 SSW 1006,5 20 0 0,0
15.10.2019 06:00:00 13,7 12,9 12,6 15,7 15,6 7 4 16 9 SSW 1006,5 20 0 0,0

tt = Température de l'air
td = dewpoint
tt 5cm = Température de l'air 5cm
tt -20cm = Température de l'air -20cm
tt -100cm = Température de l'air -100cm
ff = Vitesse du vent
fx = gusts
dd = Direction du vent
ppp = reduced air pressure
vv = visibility
sd = Ensoleillement
rr = Quantités de précipitations

stations d'obs. à proximité